Погода в Дур-Дуре

Россия / Республика Северная Осетия — Алания     43°07′26″N   44°01′35″E
темп.,
°C
ветер,
м/с
пор.,
м/с
влажн.,
%
обл.,
%
осадки,
мм/ч
давл.,
гПа
погр.,
м
9 марта, вт
вт900:00−9ююз32700 0.0 101926
03:00−10ююз33700 0.0 101926
06:00−10ююз336936 0.0 102026
09:00−4всв027119 0.0 1018314
12:00−2ссв12849 0.0 1016485
15:00−2всв128223 0.0 1016528
18:00−6ююз228034 0.0 101923
21:00−8ююз336940 0.0 102230
10 марта, ср
ср1000:00−9ююз337955 0.5 102340
03:00−9ююз338355 0.9 102449
06:00−10ююз337755 0.2 102543
09:00−5св118348 0.2 1024300
12:00−4св339570 0.6 1022409
15:00−4св339685 1.9 1021357
18:00−7св119798 0.8 102189
21:00−8в029089 1.4 102147
11 марта, чт
чт1100:00−8св1293100 0.5 101987
03:00−9св1197100 1.3 101852
06:00−9с0197100 0.4 101734
09:00−7ссв229798 0.9 1016300
12:00−6св3398100 1.3 1014483
15:00−7св3498100 3.9 1013446
18:00−10ссв2498100 3.1 1014290
21:00−12с1299100 4.9 101574
12 марта, пт
пт1200:00−14з0198100 1.3 101570
03:00−16ююз2297100 3.1 101566
06:00−15юз1196100 1.3 101848
09:00−13с1192100 2.0 1020410
12:00−11ссв2295100 0.8 1020473
15:00−11св2397100 2.4 1022389
18:00−12св1298100 2.1 1025153
21:00−14с0198100 2.9 102820
13 марта, сб
сб1300:00−14ю118999 0.1 103021
03:00−15ююз117889 0.1 103021
06:00−15ююз117458 0.0 103120
09:00−8всв118574 0.0 1030209
12:00−6св329757 0.0 1028287
15:00−6св229879 0.1 1027260
18:00−9вюв019596 0.1 102746
21:00−11ююз227471 0.1 102825